Marathon, FL

3:29 AM EST on January 20, 2018 (GMT -0500)
Florida Keys Marathon

Weather History for KMTH - August, 2013

Change the Weather History Date:

Tuesday, August 13, 2013

  Actual Average Record
Temperature  
Mean Temperature 87 °F 86 °F  
Max Temperature 93 °F 91 °F 95 °F (1997)
Min Temperature 80 °F 80 °F 73 °F (1999)
Degree Days  
Heating Degree Days 0 0  
Month to date heating degree days 0 0  
Since 1 June heating degree days 0 0  
Since 1 July heating degree days 0 0  
Cooling Degree Days 22 21  
Month to date cooling degree days 286 272  
Year to date cooling degree days 3356 3029  
Since 1 June cooling degree days 1526 1486  
Growing Degree Days 36 (Base 50)    
Moisture  
Dew Point 74 °F    
Average Humidity 68    
Maximum Humidity 79    
Minimum Humidity 56    
Precipitation  
Precipitation T in 0.20 in 1.25 in (1999)
Month to date precipitation 0.43 2.65  
Year to date precipitation 37.48 24.48  
Snow  
Snow 0.00 in - - ()
Month to date snowfall 0.0  
Since 1 June snowfall 0.0  
Since 1 July snowfall 0.0  
Snow Depth 0.00 in    
Sea Level Pressure  
Sea Level Pressure 30.00 in    
Wind  
Wind Speed 7 mph (ESE)    
Max Wind Speed 12 mph    
Max Gust Speed 16 mph    
Visibility 10 miles    
Events      
T = Trace of Precipitation, MM = Missing Value Source: NWS Daily Summary

Daily Weather History Graph

Daily Weather History Graph

Search for Another Location

Airport or City:

Trip Planner

Search our weather history database for the weather conditions in past years. The results will help you decide how hot, cold, wet, or windy it might be!

Date:

Astronomy

Aug. 13, 2013 Rise Set
Actual Time 6:57 AM EDT 7:59 PM EDT
Civil Twilight 6:33 AM EDT 8:23 PM EDT
Nautical Twilight 6:05 AM EDT 8:51 PM EDT
Astronomical Twilight 5:36 AM EDT 9:20 PM EDT
Moon 1:01 PM EDT (8/13) No Moon Set
Length of Visible Light 13h 49m
Length of Day
13h 02m
Waxing Crescent, 41% of the Moon is Illuminated
Aug 13
Waxing Crescent
Aug 14
First Quarter
Aug 20
Full
Aug 28
Last Quarter
Sep 5
New

Hourly Weather History & Observations

Time (EDT) Temp. Heat Index Dew Point Humidity Pressure Visibility Wind Dir Wind Speed Gust Speed Precip Events Conditions
12:53 AM 82.0 °F 87.9 °F 73.9 °F 76% 30.03 in 10.0 mi East 9.2 mph 16.1 mph N/A   Partly Cloudy
1:53 AM 82.0 °F 87.9 °F 73.9 °F 76% 30.02 in 10.0 mi East 8.1 mph - N/A   Partly Cloudy
2:53 AM 81.0 °F 85.8 °F 73.0 °F 77% 30.00 in 10.0 mi East 6.9 mph - N/A   Clear
3:53 AM 82.9 °F 89.4 °F 73.9 °F 74% 30.00 in 10.0 mi East 6.9 mph - N/A   Clear
4:53 AM 81.0 °F 86.2 °F 73.9 °F 79% 29.99 in 10.0 mi East 4.6 mph - N/A   Partly Cloudy
5:53 AM 84.0 °F 90.2 °F 73.0 °F 69% 30.00 in 10.0 mi Variable 5.8 mph - N/A   Scattered Clouds
6:53 AM 82.9 °F 88.8 °F 73.0 °F 72% 30.00 in 10.0 mi East 5.8 mph - N/A   Clear
7:53 AM 82.0 °F 87.9 °F 73.9 °F 76% 30.01 in 10.0 mi East 4.6 mph - N/A   Clear
8:53 AM 86.0 °F 93.0 °F 73.0 °F 65% 30.01 in 10.0 mi East 5.8 mph - N/A   Partly Cloudy
9:53 AM 87.1 °F 95.4 °F 73.9 °F 65% 30.02 in 10.0 mi East 9.2 mph - 0.00 in   Clear
10:53 AM 89.1 °F 98.0 °F 73.9 °F 61% 30.02 in 10.0 mi East 6.9 mph - N/A   Clear
11:53 AM 91.0 °F 99.3 °F 73.0 °F 55% 30.03 in 10.0 mi East 8.1 mph - N/A   Clear
12:53 PM 91.9 °F 103.2 °F 75.0 °F 58% 30.01 in 10.0 mi Variable 6.9 mph - N/A   Scattered Clouds
1:53 PM 91.0 °F 100.4 °F 73.9 °F 57% 30.01 in 10.0 mi ESE 8.1 mph - N/A   Unknown
2:53 PM 91.0 °F 101.6 °F 75.0 °F 59% 30.00 in 10.0 mi ESE 8.1 mph - N/A   Partly Cloudy
3:53 PM 91.0 °F 100.4 °F 73.9 °F 57% 29.98 in 10.0 mi Variable 6.9 mph - N/A   Clear
4:53 PM 91.0 °F 100.4 °F 73.9 °F 57% 29.97 in 10.0 mi ESE 9.2 mph - N/A   Partly Cloudy
5:53 PM 90.0 °F 99.0 °F 73.9 °F 59% 29.96 in 10.0 mi ESE 9.2 mph - N/A   Clear
6:53 PM 88.0 °F 95.6 °F 73.0 °F 61% 29.97 in 10.0 mi Variable 6.9 mph - N/A   Clear
7:53 PM 86.0 °F 93.0 °F 73.0 °F 65% 29.97 in 10.0 mi East 5.8 mph - N/A   Clear
8:53 PM 84.9 °F 92.1 °F 73.9 °F 69% 29.99 in 10.0 mi ESE 9.2 mph - N/A   Clear
9:53 PM 82.0 °F 87.4 °F 73.0 °F 74% 30.01 in 10.0 mi ESE 6.9 mph - N/A   Clear
10:53 PM 84.0 °F 89.6 °F 72.0 °F 67% 30.01 in 10.0 mi ESE 5.8 mph - N/A   Clear
11:53 PM 84.9 °F 91.4 °F 73.0 °F 67% 30.02 in 10.0 mi ESE 4.6 mph - N/A   Clear